Hourly Data Report for October 12, 2012

All times are specified in Local Standard Time (LST). Add 1 hour to adjust for Daylight Saving Time where and when it is observed.

ST LEONARD CS
NEW BRUNSWICK

47°09'28.050" N
67°49'55.014" W
245.00 m
810I001
71019
WIY

Download Data

Hourly Data (October 2012)
Hourly Data Report for October 12, 2012
Temp Definition
°C
Dew Point Temp Definition
°C
Rel Hum Definition
%
Wind Dir Definition
10's deg

Wind Spd Definition
km/h
Visibility Definition
km
Stn Press Definition
kPa
Hmdx Definition


Wind Chill Definition


Weather Definition


TIME
00:00 0.5 -2.9 78 22 7   98.42     LegendNANA
01:00 0.7 -2.8 77 20 2   98.39     LegendNANA
02:00 0.5 -2.2 82 16 9   98.37     LegendNANA
03:00 1.2 -0.5 88 18 7   98.29     LegendNANA
04:00 0.5 -0.1 96 15 6   98.17     LegendNANA
05:00 0.4 0.0 97 14 6   98.03     LegendNANA
06:00 0.5 0.2 98 14 7   97.95     LegendNANA
07:00 0.7 0.4 98 15 6   97.94     LegendNANA
08:00 2.0 1.3 95 22 6   98.00     LegendNANA
09:00 2.8 1.9 94 23 7   98.03     LegendNANA
10:00 4.0 2.6 91 27 6   98.05     LegendNANA
11:00 2.7 1.6 92 33 15   98.14     LegendNANA
12:00 3.4 0.3 80 34 13   98.24     LegendNANA
13:00 4.2 -0.8 70 32 22   98.30     LegendNANA
14:00 3.8 -2.9 62 31 26   98.38     LegendNANA
15:00 3.6 -3.6 59 31 19   98.42     LegendNANA
16:00 3.7 -2.6 63 31 19   98.49     LegendNANA
17:00 3.1 -3.0 64 30 22   98.57     LegendNANA
18:00 1.5 -3.8 68 29 15   98.68     LegendNANA
19:00 0.4 -4.1 72 29 15   98.75     LegendNANA
20:00 -0.4 -4.1 76 28 7   98.81   -3 LegendNANA
21:00 -0.3 -3.8 77 28 9   98.86   -3 LegendNANA
22:00 -0.3 -3.5 79 29 15   98.90   -5 LegendNANA
23:00 -0.5 -3.4 81 29 15   98.96   -5 LegendNANA

Notes on Data Quality.

Legend

  • E = Estimated
  • M = Missing
  • NA = Not Available
  • ‡ = Partner data that is not subject to review by the National Climate Archives
Date modified: